Location: Fort Worth, Tx
(32.7431°N, 97.3695°W)
Time: 01:17:37
(UTC-04:00)

CAS-4A - Visible Passes

Search period start: 23 March 2023 00:00
Search period end: 02 April 2023 00:00
Orbit: 510 x 527 km, 43.0° (Epoch: 22 March)

Date Brightness Start Highest point End Pass type
(mag) Time Alt. Az. Time Alt. Az. Time Alt. Az.
23 Mar ? 07:08:37 10° S 07:11:16 17° SE 07:13:54 10° E visible
24 Mar ? 06:53:06 15° S 06:55:03 20° SE 06:58:04 10° E visible
25 Mar ? 06:38:06 23° SSE 06:38:50 24° SE 06:42:07 10° E visible
26 Mar ? 06:22:59 28° SE 06:22:59 28° SE 06:26:06 10° E visible
26 Mar ? 07:58:20 10° W 08:02:13 47° NNW 08:06:07 10° NE visible
27 Mar ? 06:07:43 26° E 06:07:43 26° E 06:10:00 10° ENE visible
27 Mar ? 07:42:42 13° W 07:46:02 42° NNW 07:49:53 10° NE visible
28 Mar ? 05:52:21 21° E 05:52:21 21° E 05:53:51 10° ENE visible
28 Mar ? 07:27:20 18° W 07:29:50 37° NNW 07:33:36 10° NE visible
29 Mar ? 05:36:53 15° ENE 05:36:53 15° ENE 05:37:40 10° ENE visible
29 Mar ? 07:11:51 23° WNW 07:13:37 33° NNW 07:17:17 10° NE visible
30 Mar ? 05:21:20 10° ENE 05:21:20 10° ENE 05:21:25 10° ENE visible
30 Mar ? 06:56:18 26° NW 06:57:24 30° NNW 07:00:59 10° NE visible
31 Mar ? 06:40:40 27° NNW 06:41:09 28° NNW 06:44:38 10° NE visible
01 Apr ? 06:24:59 25° NNW 06:24:59 25° NNW 06:28:16 10° NE visible
